Regional Weather Roundup
Issued by NWS

Home | Current Version | Previous Version | Graphics & Text | Print | Product List | Glossary Off
Versions: 1 2 3 4 5 6 7 8 9 10 11 12 13 14 15 16 17 18 19 20 21 22 23 24 25 26 27 28 29 30 31 32 33 34 35 36 37 38 39 40 41 42 43 44 45 46 47 48 49 50

000
ASUS43 KDTX 290101
RWRMI
MICHIGAN HOURLY REGIONAL WEATHER ROUNDUP
NATIONAL WEATHER SERVICE DETROIT/PONTIAC MI
900 PM EDT THU APR 28 2016

NOTE: "FAIR" INDICATES FEW OR NO CLOUDS BELOW 12,000 FEET WITH NO
SIGNIFICANT WEATHER AND/OR OBSTRUCTION TO VISIBILITY.

MIZ047>049-052>055-059>063-066>070-074>076-081>083-290200-
SOUTHEAST LOWER MICHIGAN

CITY           SKY/WX    TMP DP  RH WIND       PRES   REMARKS
ADRIAN         CLOUDY    47  36  65 E8        29.99R
ALMA           CLOUDY    40  35  81 NE12G18   30.03S WCI  33
ANN ARBOR      CLOUDY    48  33  56 E5        29.98S
BAD AXE        CLOUDY    39  30  71 NE6       30.06S WCI  34
CARO           CLOUDY    42  32  68 NE3       30.04R
DETROIT CITY   CLOUDY    47  28  47 NE7       30.00R
DETROIT        CLOUDY    49  32  52 NE7       29.99S
FLINT          CLOUDY    49  27  42 NE13      30.02R
GROSSE ILE     CLOUDY    48  36  61 NE6       29.98R
HILLSDALE      CLOUDY    45  36  70 NE5       29.98R
HOWELL         CLOUDY    46  28  49 NE7       30.00R

CITY           SKY/WX    TMP DP  RH WIND       PRES   REMARKS
JACKSON        CLOUDY    45  35  68 NE5       29.99R
LAMBERTVILLE   CLOUDY    48  35  58 E9        29.98R
LANSING        CLOUDY    45  35  68 NE9       30.00S
LAPEER         CLOUDY    43  30  59 NE8       30.02S
MASON          CLOUDY    46  34  64 NE6       29.99S
MONROE         CLOUDY    47  34  60 E3        29.99S
MT. CLEMENS    CLOUDY    46  30  52 NE12      29.99S
PONTIAC        CLOUDY    46  26  45 NE8       30.00R
PORT HOPE        N/A     40  34  79 NE10      30.05S WCI  33
PORT HURON     CLOUDY    43  32  65 NE7       30.01F
TRI CITIES     CLOUDY    42  34  73 NE15      30.05R
MIDLAND        CLOUDY    40  33  78 NE7       30.05S WCI  35
TROY           CLOUDY    48  27  43 N5        30.02R
SAGINAW HB     CLOUDY    41  34  75 NE13      30.04R
$$
MIZ043>046-050>051-056>058-064>065-071>073-077>080-290200-
SOUTHWEST LOWER MICHIGAN

CITY           SKY/WX    TMP DP  RH WIND       PRES   REMARKS
BATTLE CREEK   CLOUDY    46  35  65 E9        30.00R
BENTON HARBOR  CLOUDY    50  43  77 E7        29.96R
BIG RAPIDS     CLOUDY    41  30  64 E7        30.02S
COLDWATER      CLOUDY    46  36  68 E7        29.98R
FREMONT        CLOUDY    42  34  74 E8        30.03R
HOLLAND        CLOUDY    43  37  79 E8        30.01S
GRAND RAPIDS   CLOUDY    44  37  76 E8        30.01R
IONIA          CLOUDY    41  36  80 NE9       30.01R
KALAMAZOO      CLOUDY    47  37  68 E3        29.99R
LUDINGTON      CLOUDY    43  33  67 E8        30.04S
MARSHALL       CLOUDY    45  34  66 E3        29.99R
MOUNT PLEASANT CLOUDY    40  34  81 NE9       30.03R WCI  33
MUSKEGON       CLOUDY    43  36  76 E12       30.02R
$$
MIZ016>042-290200-
NORTHERN LOWER MICHIGAN

CITY           SKY/WX    TMP DP  RH WIND       PRES   REMARKS
ALPENA         PTCLDY    39  21  48 NE5       30.09S
BEAVER ISLAND  PTCLDY    41  24  50 NE8       30.08S
BELLAIRE       CLOUDY    50  24  36 E3        30.04S
CADILLAC       CLOUDY    39  32  76 E9        30.02F WCI  33
CHARLEVOIX     CLOUDY    46  23  41 E12       30.09R
GAYLORD        MOCLDY    45  24  43 E7        30.05R
GRAYLING       CLOUDY    44  25  46 E7        30.06R
HARBOR SPRINGS PTCLDY    44  21  40 NE7       30.07S
HOUGHTON LAKE  CLOUDY    40  36  86 CALM      30.05R
MANISTEE       CLOUDY    45  28  53 SE7       30.05R
OSCODA         CLOUDY    40  28  60 NE6       30.07S
PELLSTON       CLOUDY    43  18  36 E6        30.08F
ROGERS CITY    PTCLDY    39  29  68 CALM      30.10S
TRAVERSE CITY  CLOUDY    46  35  65 CALM      30.03R
$$
MIZ007>008-015-290200-
EASTERN UPPER MICHIGAN

CITY           SKY/WX    TMP DP  RH WIND       PRES   REMARKS
KINROSS          N/A     45  27  49 CALM      30.10R
MACKINAC ISLAN PTCLDY    37  28  69 NE5       30.09S WCI  33
NEWBERRY       PTCLDY    44  29  57 MISG      30.09S
S. S. MARIE    PTCLDY    44  30  57 SW3       30.09R
MUNISING         N/A     39  32  76 N7        30.11R WCI  34
$$
MIZ004>006-011>014-085-290200-
CENTRAL UPPER MICHIGAN

CITY           SKY/WX    TMP DP  RH WIND       PRES   REMARKS
MANISTIQUE     MOCLDY    42  23  47 E3        30.08S
ESCANABA       CLOUDY    48  25  40 NE7       30.08R
MENOMINEE      CLOUDY    43  28  56 CALM      30.06F
SAWYER-GWINN   CLEAR     34  27  75 N7        30.08S WCI  28
$$
MIZ001>003-009>011-084-290200-
WESTERN UPPER MICHIGAN

CITY           SKY/WX    TMP DP  RH WIND       PRES   REMARKS
IRON MOUNTAIN  CLOUDY    48  23  37 NE6       30.05R
HOUGHTON       CLEAR     38  27  64 E3        30.10S
COPPER HARBOR    N/A     37  31  78 CALM      30.13S
IRONWOOD       CLEAR     39  28  65 NE3       30.06R
$$

ABBREVIATIONS USED IN REMARKS
   TC - TEMPERATURE IN CELSIUS
  WCI - WIND CHILL INDEX
   HX - HEAT INDEX
  VSB - VISIBILITY





USA.gov is the U.S. government's official web portal to all federal, state and local government web resources and services.